| time (UTC) | temp F | wind direction | speed MPH | gust MPH | rain 1hr in | rain 24hr in | rain mn in | humidity % | barometer mb |
| 20260906213451 | 92 | 179 | 1.0 | 2.0 | 0.00 | 0.00 | 0.00 | 33 | 1018.3 |
| 20260906212949 | 90 | 144 | 1.0 | 2.0 | 0.00 | 0.00 | 0.00 | 35 | 1018.5 |
| 20260906212444 | 91 | 43 | 2.0 | 7.0 | 0.00 | 0.00 | 0.00 | 33 | 1018.5 |
| 20260906211939 | 91 | 103 | 2.0 | 4.0 | 0.00 | 0.00 | 0.00 | 31 | 1018.5 |
| 20260906211434 | 90 | 76 | 2.0 | 3.0 | 0.00 | 0.00 | 0.00 | 32 | 1018.6 |
| 20260906210929 | 90 | 141 | 1.0 | 3.0 | 0.00 | 0.00 | 0.00 | 33 | 1018.7 |
| 20260906210425 | 89 | 200 | 2.0 | 3.0 | 0.00 | 0.00 | 0.00 | 35 | 1018.5 |
| 20260906205919 | 89 | 71 | 2.0 | 4.0 | 0.00 | 0.00 | 0.00 | 36 | 1018.8 |
| 20260906205415 | 89 | 193 | 0.0 | 1.0 | 0.00 | 0.00 | 0.00 | 37 | 1018.8 |
| 20260906204911 | 89 | 157 | 0.0 | 4.0 | 0.00 | 0.00 | 0.00 | 38 | 1018.7 |
| 20260906204410 | 89 | 142 | 2.0 | 2.0 | 0.00 | 0.00 | 0.00 | 37 | 1018.8 |
| 20260906203909 | 89 | 232 | 1.0 | 4.0 | 0.00 | 0.00 | 0.00 | 37 | 1018.8 |
| 20260906203404 | 90 | 159 | 1.0 | 2.0 | 0.00 | 0.00 | 0.00 | 40 | 1019.1 |
| 20260906202901 | 90 | 108 | 0.0 | 2.0 | 0.00 | 0.00 | 0.00 | 38 | 1019.1 |
| 20260906202355 | 89 | 125 | 2.0 | 2.0 | 0.00 | 0.00 | 0.00 | 38 | 1019.1 |
| 20260906201855 | 89 | 116 | 1.0 | 7.0 | 0.00 | 0.00 | 0.00 | 39 | 1019.0 |
| 20260906201349 | 87 | 164 | 2.0 | 2.0 | 0.00 | 0.00 | 0.00 | 38 | 1019.2 |
| 20260906200845 | 86 | 180 | 0.0 | 3.0 | 0.00 | 0.00 | 0.00 | 42 | 1019.1 |
| 20260906200341 | 87 | 170 | 1.0 | 3.0 | 0.00 | 0.00 | 0.00 | 42 | 1019.4 |
| 20260906195836 | 85 | 171 | 0.0 | 2.0 | 0.00 | 0.00 | 0.00 | 42 | 1019.4 |
| 20260906195332 | 84 | 227 | 2.0 | 3.0 | 0.00 | 0.00 | 0.00 | 42 | 1019.4 |
| 20260906194828 | 85 | 173 | 2.0 | 3.0 | 0.00 | 0.00 | 0.00 | 41 | 1019.4 |
| 20260906194318 | 87 | 227 | 1.0 | 3.0 | 0.00 | 0.00 | 0.00 | 39 | 1019.7 |
| 20260906193813 | 87 | 127 | 1.0 | 6.0 | 0.00 | 0.00 | 0.00 | 39 | 1019.7 |
| 20260906193307 | 85 | 205 | 2.0 | 2.0 | 0.00 | 0.00 | 0.00 | 42 | 1019.8 |
| 20260906192803 | 86 | 30 | 4.0 | 4.0 | 0.00 | 0.00 | 0.00 | 41 | 1019.7 |
| 20260906192258 | 86 | 101 | 0.0 | 2.0 | 0.00 | 0.00 | 0.00 | 41 | 1019.8 |
| 20260906191757 | 85 | 159 | 0.0 | 3.0 | 0.00 | 0.00 | 0.00 | 42 | 1019.9 |
| 20260906191252 | 84 | 212 | 0.0 | 2.0 | 0.00 | 0.00 | 0.00 | 43 | 1019.9 |
| 20260906190752 | 84 | 195 | 0.0 | 2.0 | 0.00 | 0.00 | 0.00 | 45 | 1020.2 |
| 20260906190245 | 84 | 155 | 0.0 | 2.0 | 0.00 | 0.00 | 0.00 | 44 | 1020.1 |
| 20260906185745 | 82 | 325 | 1.0 | 1.0 | 0.00 | 0.00 | 0.00 | 45 | 1020.2 |
| 20260906185244 | 83 | 158 | 0.0 | 2.0 | 0.00 | 0.00 | 0.00 | 45 | 1020.4 |
| 20260906184739 | 83 | 150 | 0.0 | 1.0 | 0.00 | 0.00 | 0.00 | 47 | 1020.5 |
| 20260906184234 | 82 | 140 | 0.0 | 2.0 | 0.00 | 0.00 | 0.00 | 46 | 1020.7 |
| 20260906183729 | 82 | 57 | 0.0 | 3.0 | 0.00 | 0.00 | 0.00 | 50 | 1020.7 |
| 20260906183226 | 82 | 49 | 0.0 | 4.0 | 0.00 | 0.00 | 0.00 | 48 | 1020.5 |
| 20260906182725 | 82 | 112 | 0.0 | 2.0 | 0.00 | 0.00 | 0.00 | 46 | 1020.8 |
| 20260906182222 | 82 | 149 | 0.0 | 3.0 | 0.00 | 0.00 | 0.00 | 46 | 1021.1 |
| 20260906181717 | 81 | 170 | 0.0 | 1.0 | 0.00 | 0.00 | 0.00 | 49 | 1021.1 |
| 20260906181214 | 80 | 164 | 0.0 | 2.0 | 0.00 | 0.00 | 0.00 | 50 | 1021.4 |
| 20260906180708 | 79 | 177 | 0.0 | 3.0 | 0.00 | 0.00 | 0.00 | 52 | 1021.3 |
| 20260906180203 | 80 | 170 | 1.0 | 4.0 | 0.00 | 0.00 | 0.00 | 54 | 1021.4 |
| 20260906175701 | 80 | 120 | 0.0 | 1.0 | 0.00 | 0.00 | 0.00 | 53 | 1021.4 |
| 20260906175156 | 77 | 66 | 2.0 | 3.0 | 0.00 | 0.00 | 0.00 | 56 | 1021.6 |
| 20260906174655 | 77 | 133 | 0.0 | 1.0 | 0.00 | 0.00 | 0.00 | 57 | 1021.8 |
| 20260906174149 | 78 | 104 | 2.0 | 3.0 | 0.00 | 0.00 | 0.00 | 54 | 1021.8 |
| 20260906173645 | 79 | 181 | 1.0 | 1.0 | 0.00 | 0.00 | 0.00 | 54 | 1021.9 |
| 20260906173140 | 78 | 77 | 1.0 | 2.0 | 0.00 | 0.00 | 0.00 | 53 | 1022.2 |
| 20260906172639 | 78 | 227 | 0.0 | 3.0 | 0.00 | 0.00 | 0.00 | 58 | 1022.1 |
| 20260906172135 | 79 | 86 | 1.0 | 4.0 | 0.00 | 0.00 | 0.00 | 54 | 1022.1 |
| 20260906171634 | 79 | 183 | 0.0 | 2.0 | 0.00 | 0.00 | 0.00 | 56 | 1022.5 |
| 20260906171130 | 79 | 156 | 0.0 | 3.0 | 0.00 | 0.00 | 0.00 | 55 | 1022.2 |
| 20260906170627 | 78 | 164 | 0.0 | 1.0 | 0.00 | 0.00 | 0.00 | 55 | 1022.5 |
| 20260906170126 | 79 | 159 | 1.0 | 1.0 | 0.00 | 0.00 | 0.00 | 56 | 1022.2 |
| 20260906165622 | 78 | 116 | 3.0 | 4.0 | 0.00 | 0.00 | 0.00 | 55 | 1022.6 |
| 20260906165118 | 78 | 170 | 1.0 | 2.0 | 0.00 | 0.00 | 0.00 | 56 | 1022.5 |
| 20260906164616 | 76 | 167 | 2.0 | 2.0 | 0.00 | 0.00 | 0.00 | 57 | 1022.5 |
| 20260906164112 | 77 | 75 | 2.0 | 4.0 | 0.00 | 0.00 | 0.00 | 57 | 1022.1 |
| 20260906163608 | 78 | 145 | 0.0 | 0.0 | 0.00 | 0.00 | 0.00 | 55 | 1022.2 |
| 20260906163103 | 78 | 150 | 1.0 | 1.0 | 0.00 | 0.00 | 0.00 | 54 | 1022.2 |
| 20260906162600 | 77 | 214 | 0.0 | 0.0 | 0.00 | 0.00 | 0.00 | 55 | 1022.5 |
| 20260906162055 | 75 | 155 | 0.0 | 3.0 | 0.00 | 0.00 | 0.00 | 56 | 1022.5 |
| 20260906161550 | 77 | 183 | 1.0 | 1.0 | 0.00 | 0.00 | 0.00 | 54 | 1022.2 |
| 20260906161049 | 76 | 143 | 0.0 | 1.0 | 0.00 | 0.00 | 0.00 | 53 | 1022.2 |
| 20260906160548 | 75 | 129 | 0.0 | 0.0 | 0.00 | 0.00 | 0.00 | 56 | 1022.3 |
| 20260906160046 | 75 | 164 | 0.0 | 0.0 | 0.00 | 0.00 | 0.00 | 57 | 1022.2 |
| 20260906155544 | 73 | 169 | 0.0 | 2.0 | 0.00 | 0.00 | 0.00 | 58 | 1022.6 |
| 20260906155040 | 74 | 151 | 1.0 | 3.0 | 0.00 | 0.00 | 0.00 | 59 | 1022.7 |
| 20260906154536 | 73 | 161 | 2.0 | 3.0 | 0.00 | 0.00 | 0.00 | 60 | 1022.5 |
| 20260906154034 | 74 | 94 | 2.0 | 2.0 | 0.00 | 0.00 | 0.00 | 61 | 1022.7 |
| 20260906153533 | 73 | 180 | 0.0 | 0.0 | 0.00 | 0.00 | 0.00 | 63 | 1022.6 |
| 20260906153028 | 72 | 176 | 0.0 | 0.0 | 0.00 | 0.00 | 0.00 | 64 | 1022.6 |
| 20260906152522 | 71 | 148 | 1.0 | 2.0 | 0.00 | 0.00 | 0.00 | 65 | 1022.7 |
| 20260906152021 | 70 | 94 | 0.0 | 0.0 | 0.00 | 0.00 | 0.00 | 67 | 1022.6 |
| 20260906151517 | 71 | 133 | 2.0 | 3.0 | 0.00 | 0.00 | 0.00 | 67 | 1022.7 |
| 20260906151013 | 72 | 113 | 1.0 | 2.0 | 0.00 | 0.00 | 0.00 | 65 | 1022.8 |
| 20260906150508 | 71 | 146 | 1.0 | 1.0 | 0.00 | 0.00 | 0.00 | 67 | 1022.7 |
| 20260906150008 | 70 | 178 | 0.0 | 1.0 | 0.00 | 0.00 | 0.00 | 67 | 1022.8 |
| 20260906145507 | 70 | 86 | 1.0 | 1.0 | 0.00 | 0.00 | 0.00 | 67 | 1022.7 |
| 20260906145003 | 69 | 127 | 0.0 | 2.0 | 0.00 | 0.00 | 0.00 | 69 | 1022.6 |
| 20260906144456 | 69 | 70 | 1.0 | 2.0 | 0.00 | 0.00 | 0.00 | 67 | 1022.8 |
| 20260906143952 | 69 | 140 | 0.0 | 2.0 | 0.00 | 0.00 | 0.00 | 68 | 1022.6 |
| 20260906143447 | 67 | 81 | 2.0 | 3.0 | 0.00 | 0.00 | 0.00 | 70 | 1022.5 |
| 20260906142944 | 66 | 149 | 0.0 | 2.0 | 0.00 | 0.00 | 0.00 | 71 | 1022.7 |
| 20260906142442 | 66 | 135 | 0.0 | 0.0 | 0.00 | 0.00 | 0.00 | 69 | 1022.6 |
| 20260906141937 | 67 | 176 | 0.0 | 0.0 | 0.00 | 0.00 | 0.00 | 67 | 1022.7 |
| 20260906141432 | 67 | 129 | 0.0 | 0.0 | 0.00 | 0.00 | 0.00 | 65 | 1022.8 |
| 20260906140932 | 68 | 149 | 0.0 | 0.0 | 0.00 | 0.00 | 0.00 | 64 | 1022.6 |
| 20260906140427 | 67 | 150 | 0.0 | 0.0 | 0.00 | 0.00 | 0.00 | 66 | 1022.7 |
| 20260906135924 | 65 | 150 | 0.0 | 0.0 | 0.00 | 0.00 | 0.00 | 68 | 1022.7 |
| 20260906135423 | 64 | 151 | 0.0 | 0.0 | 0.00 | 0.00 | 0.00 | 69 | 1022.8 |
| 20260906134919 | 64 | 151 | 0.0 | 0.0 | 0.00 | 0.00 | 0.00 | 69 | 1023.0 |
| 20260906134415 | 63 | 187 | 0.0 | 0.0 | 0.00 | 0.00 | 0.00 | 69 | 1022.7 |
| 20260906133909 | 62 | 188 | 0.0 | 0.0 | 0.00 | 0.00 | 0.00 | 72 | 1022.6 |
| 20260906133405 | 60 | 188 | 0.0 | 0.0 | 0.00 | 0.00 | 0.00 | 74 | 1022.7 |
| 20260906132900 | 60 | 188 | 0.0 | 0.0 | 0.00 | 0.00 | 0.00 | 75 | 1022.7 |
| 20260906132355 | 60 | 188 | 0.0 | 0.0 | 0.00 | 0.00 | 0.00 | 77 | 1022.6 |
| 20260906131851 | 59 | 188 | 0.0 | 0.0 | 0.00 | 0.00 | 0.00 | 78 | 1022.5 |
| 20260906131347 | 59 | 188 | 0.0 | 0.0 | 0.00 | 0.00 | 0.00 | 79 | 1022.5 |
| 20260906130842 | 59 | 188 | 0.0 | 0.0 | 0.00 | 0.00 | 0.00 | 79 | 1022.6 |
| 20260906130342 | 58 | 188 | 0.0 | 0.0 | 0.00 | 0.00 | 0.00 | 80 | 1022.5 |
| 20260906125840 | 57 | 188 | 0.0 | 0.0 | 0.00 | 0.00 | 0.00 | 81 | 1022.6 |
| 20260906125338 | 58 | 188 | 0.0 | 0.0 | 0.00 | 0.00 | 0.00 | 81 | 1022.6 |
| 20260906124833 | 58 | 188 | 0.0 | 0.0 | 0.00 | 0.00 | 0.00 | 83 | 1022.5 |
| 20260906124329 | 58 | 187 | 0.0 | 0.0 | 0.00 | 0.00 | 0.00 | 84 | 1022.7 |
| 20260906123828 | 58 | 187 | 0.0 | 0.0 | 0.00 | 0.00 | 0.00 | 85 | 1022.2 |
| 20260906123323 | 59 | 188 | 0.0 | 0.0 | 0.00 | 0.00 | 0.00 | 85 | 1022.3 |
| 20260906122823 | 59 | 188 | 0.0 | 0.0 | 0.00 | 0.00 | 0.00 | 85 | 1022.3 |
| 20260906122318 | 59 | 187 | 0.0 | 0.0 | 0.00 | 0.00 | 0.00 | 85 | 1022.5 |
| 20260906121816 | 59 | 187 | 0.0 | 0.0 | 0.00 | 0.00 | 0.00 | 84 | 1022.3 |
| 20260906121311 | 59 | 187 | 0.0 | 0.0 | 0.00 | 0.00 | 0.00 | 83 | 1022.7 |
| 20260906120807 | 60 | 188 | 0.0 | 0.0 | 0.00 | 0.00 | 0.00 | 83 | 1022.5 |
| 20260906120303 | 60 | 188 | 0.0 | 0.0 | 0.00 | 0.00 | 0.00 | 83 | 1022.5 |
| 20260906115759 | 59 | 188 | 0.0 | 0.0 | 0.00 | 0.00 | 0.00 | 82 | 1022.5 |
| 20260906115253 | 60 | 188 | 0.0 | 0.0 | 0.00 | 0.00 | 0.00 | 81 | 1022.3 |
| 20260906114753 | 60 | 188 | 0.0 | 0.0 | 0.00 | 0.00 | 0.00 | 80 | 1022.5 |
| 20260906114248 | 60 | 188 | 0.0 | 0.0 | 0.00 | 0.00 | 0.00 | 79 | 1022.3 |
| 20260906113743 | 60 | 187 | 0.0 | 0.0 | 0.00 | 0.00 | 0.00 | 78 | 1022.5 |
| 20260906113243 | 60 | 188 | 0.0 | 0.0 | 0.00 | 0.00 | 0.00 | 77 | 1022.3 |
| 20260906112737 | 61 | 188 | 0.0 | 0.0 | 0.00 | 0.00 | 0.00 | 75 | 1022.3 |
| 20260906112233 | 61 | 188 | 0.0 | 0.0 | 0.00 | 0.00 | 0.00 | 76 | 1022.2 |
| 20260906111727 | 61 | 188 | 0.0 | 0.0 | 0.00 | 0.00 | 0.00 | 76 | 1022.5 |
| 20260906111222 | 60 | 187 | 0.0 | 0.0 | 0.00 | 0.00 | 0.00 | 76 | 1022.2 |
| 20260906110716 | 60 | 187 | 0.0 | 0.0 | 0.00 | 0.00 | 0.00 | 74 | 1022.2 |
| 20260906110206 | 60 | 188 | 0.0 | 0.0 | 0.00 | 0.00 | 0.00 | 72 | 1022.2 |
| 20260906105700 | 61 | 187 | 0.0 | 0.0 | 0.00 | 0.00 | 0.00 | 70 | 1022.1 |
| 20260906105156 | 61 | 188 | 0.0 | 0.0 | 0.00 | 0.00 | 0.00 | 68 | 1022.2 |
| 20260906104655 | 61 | 188 | 0.0 | 0.0 | 0.00 | 0.00 | 0.00 | 68 | 1022.2 |
| 20260906104155 | 60 | 188 | 0.0 | 0.0 | 0.00 | 0.00 | 0.00 | 70 | 1022.3 |
| 20260906103652 | 60 | 188 | 0.0 | 0.0 | 0.00 | 0.00 | 0.00 | 71 | 1022.2 |
| 20260906103148 | 60 | 188 | 0.0 | 0.0 | 0.00 | 0.00 | 0.00 | 70 | 1022.3 |
| 20260906102643 | 60 | 188 | 0.0 | 0.0 | 0.00 | 0.00 | 0.00 | 70 | 1022.3 |
| 20260906102142 | 60 | 188 | 0.0 | 0.0 | 0.00 | 0.00 | 0.00 | 71 | 1022.2 |
| 20260906101642 | 60 | 187 | 0.0 | 0.0 | 0.00 | 0.00 | 0.00 | 71 | 1022.2 |
| 20260906101137 | 60 | 188 | 0.0 | 0.0 | 0.00 | 0.00 | 0.00 | 72 | 1022.2 |
| 20260906100633 | 60 | 188 | 0.0 | 0.0 | 0.00 | 0.00 | 0.00 | 72 | 1022.5 |
| 20260906100127 | 61 | 188 | 0.0 | 0.0 | 0.00 | 0.00 | 0.00 | 71 | 1022.1 |
| 20260906095622 | 61 | 151 | 0.0 | 0.0 | 0.00 | 0.00 | 0.00 | 70 | 1022.0 |
| 20260906095118 | 61 | 151 | 0.0 | 0.0 | 0.00 | 0.00 | 0.00 | 68 | 1022.0 |
| 20260906094616 | 62 | 151 | 0.0 | 0.0 | 0.00 | 0.00 | 0.00 | 67 | 1021.9 |
| 20260906094113 | 62 | 151 | 0.0 | 0.0 | 0.00 | 0.00 | 0.00 | 67 | 1021.8 |
| 20260906093608 | 62 | 150 | 0.0 | 0.0 | 0.00 | 0.00 | 0.00 | 67 | 1022.0 |
| 20260906093103 | 62 | 187 | 0.0 | 0.0 | 0.00 | 0.00 | 0.00 | 68 | 1021.8 |
| 20260906092558 | 62 | 187 | 0.0 | 0.0 | 0.00 | 0.00 | 0.00 | 67 | 1021.9 |
| 20260906092053 | 62 | 187 | 0.0 | 0.0 | 0.00 | 0.00 | 0.00 | 67 | 1021.6 |
| 20260906091549 | 63 | 187 | 0.0 | 0.0 | 0.00 | 0.00 | 0.00 | 66 | 1021.6 |
| 20260906091045 | 63 | 187 | 0.0 | 0.0 | 0.00 | 0.00 | 0.00 | 65 | 1021.5 |
| 20260906090545 | 63 | 187 | 0.0 | 0.0 | 0.00 | 0.00 | 0.00 | 65 | 1021.5 |
| 20260906090040 | 63 | 164 | 0.0 | 0.0 | 0.00 | 0.00 | 0.00 | 65 | 1021.4 |
| 20260906085539 | 64 | 164 | 0.0 | 0.0 | 0.00 | 0.00 | 0.00 | 64 | 1021.4 |
| 20260906085039 | 64 | 163 | 0.0 | 0.0 | 0.00 | 0.00 | 0.00 | 63 | 1021.4 |
| 20260906084533 | 64 | 164 | 0.0 | 0.0 | 0.00 | 0.00 | 0.00 | 62 | 1021.5 |
| 20260906084032 | 65 | 150 | 0.0 | 0.0 | 0.00 | 0.00 | 0.00 | 61 | 1021.4 |
| 20260906083528 | 65 | 224 | 0.0 | 1.0 | 0.00 | 0.00 | 0.00 | 61 | 1021.3 |
| 20260906083028 | 65 | 149 | 0.0 | 0.0 | 0.00 | 0.00 | 0.00 | 61 | 1021.6 |
| 20260906082523 | 65 | 228 | 0.0 | 0.0 | 0.00 | 0.00 | 0.00 | 61 | 1021.5 |
| 20260906082019 | 65 | 228 | 0.0 | 0.0 | 0.00 | 0.00 | 0.00 | 61 | 1021.6 |
| 20260906081514 | 65 | 228 | 0.0 | 0.0 | 0.00 | 0.00 | 0.00 | 61 | 1021.6 |
| 20260906081010 | 64 | 229 | 0.0 | 0.0 | 0.00 | 0.00 | 0.00 | 62 | 1021.5 |
| 20260906080506 | 64 | 229 | 0.0 | 0.0 | 0.00 | 0.00 | 0.00 | 61 | 1021.4 |
| 20260906080002 | 65 | 229 | 0.0 | 0.0 | 0.00 | 0.00 | 0.00 | 61 | 1021.4 |
| 20260906075456 | 65 | 229 | 0.0 | 0.0 | 0.00 | 0.00 | 0.00 | 61 | 1021.5 |
| 20260906074950 | 65 | 229 | 0.0 | 0.0 | 0.00 | 0.00 | 0.00 | 60 | 1021.8 |
| 20260906074445 | 65 | 229 | 0.0 | 1.0 | 0.00 | 0.00 | 0.00 | 60 | 1021.9 |
| 20260906073943 | 65 | 229 | 1.0 | 1.0 | 0.00 | 0.00 | 0.00 | 60 | 1021.5 |
| 20260906073439 | 65 | 229 | 0.0 | 0.0 | 0.00 | 0.00 | 0.00 | 61 | 1021.6 |
| 20260906072935 | 64 | 229 | 0.0 | 0.0 | 0.00 | 0.00 | 0.00 | 61 | 1021.5 |
| 20260906072430 | 64 | 229 | 0.0 | 0.0 | 0.00 | 0.00 | 0.00 | 62 | 1021.5 |
| 20260906071926 | 64 | 229 | 2.0 | 2.0 | 0.00 | 0.00 | 0.00 | 62 | 1021.5 |
| 20260906071422 | 64 | 229 | 0.0 | 0.0 | 0.00 | 0.00 | 0.00 | 62 | 1021.6 |
| 20260906070918 | 64 | 229 | 0.0 | 0.0 | 0.00 | 0.00 | 0.00 | 63 | 1021.8 |
| 20260906070413 | 64 | 229 | 0.0 | 0.0 | 0.00 | 0.00 | 0.00 | 62 | 1021.9 |
| 20260906065908 | 64 | 230 | 0.0 | 0.0 | 0.00 | 0.00 | 0.00 | 62 | 1021.9 |
| 20260906065403 | 65 | 230 | 0.0 | 0.0 | 0.00 | 0.00 | 0.00 | 61 | 1021.9 |
| 20260906064859 | 65 | 230 | 0.0 | 0.0 | 0.00 | 0.00 | 0.00 | 59 | 1022.1 |
| 20260906064354 | 66 | 231 | 0.0 | 0.0 | 0.00 | 0.00 | 0.00 | 59 | 1021.8 |
| 20260906063849 | 66 | 232 | 0.0 | 0.0 | 0.00 | 0.00 | 0.00 | 58 | 1021.9 |
| 20260906063344 | 67 | 232 | 0.0 | 0.0 | 0.00 | 0.00 | 0.00 | 57 | 1021.8 |
| 20260906062839 | 68 | 233 | 0.0 | 0.0 | 0.00 | 0.00 | 0.00 | 56 | 1022.0 |
| 20260906062338 | 68 | 234 | 0.0 | 0.0 | 0.00 | 0.00 | 0.00 | 56 | 1022.0 |
| 20260906061834 | 68 | 235 | 0.0 | 0.0 | 0.00 | 0.00 | 0.00 | 55 | 1021.5 |
| 20260906061330 | 68 | 236 | 0.0 | 0.0 | 0.00 | 0.00 | 0.00 | 54 | 1021.6 |
| 20260906060824 | 68 | 237 | 0.0 | 0.0 | 0.00 | 0.00 | 0.00 | 53 | 1021.6 |
| 20260906060323 | 68 | 238 | 1.0 | 1.0 | 0.00 | 0.00 | 0.00 | 54 | 1021.5 |
| 20260906055818 | 67 | 239 | 0.0 | 0.0 | 0.00 | 0.00 | 0.00 | 54 | 1021.6 |
| 20260906055314 | 68 | 239 | 0.0 | 1.0 | 0.00 | 0.00 | 0.00 | 54 | 1021.6 |
| 20260906054809 | 68 | 240 | 0.0 | 0.0 | 0.00 | 0.00 | 0.00 | 53 | 1021.5 |
| 20260906054304 | 67 | 241 | 0.0 | 0.0 | 0.00 | 0.00 | 0.00 | 54 | 1021.5 |
| 20260906053800 | 68 | 242 | 0.0 | 1.0 | 0.00 | 0.00 | 0.00 | 54 | 1022.0 |
| 20260906053255 | 68 | 243 | 3.0 | 3.0 | 0.00 | 0.00 | 0.00 | 53 | 1022.0 |
| 20260906052750 | 68 | 194 | 1.0 | 1.0 | 0.00 | 0.00 | 0.00 | 53 | 1021.9 |
| 20260906052247 | 69 | 192 | 0.0 | 0.0 | 0.00 | 0.00 | 0.00 | 53 | 1021.8 |
| 20260906051744 | 69 | 197 | 0.0 | 3.0 | 0.00 | 0.00 | 0.00 | 52 | 1021.6 |
| 20260906051244 | 68 | 169 | 0.0 | 1.0 | 0.00 | 0.00 | 0.00 | 54 | 1021.6 |
| 20260906050738 | 68 | 187 | 1.0 | 2.0 | 0.00 | 0.00 | 0.00 | 55 | 1021.5 |
| 20260906050234 | 68 | 152 | 0.0 | 0.0 | 0.00 | 0.00 | 0.00 | 55 | 1021.3 |
| 20260906045732 | 68 | 152 | 0.0 | 2.0 | 0.00 | 0.00 | 0.00 | 55 | 1021.1 |
| 20260906045227 | 69 | 200 | 2.0 | 2.0 | 0.00 | 0.00 | 0.00 | 54 | 1020.7 |
| 20260906044723 | 69 | 172 | 0.0 | 1.0 | 0.00 | 0.00 | 0.00 | 53 | 1020.6 |
| 20260906044218 | 69 | 162 | 0.0 | 2.0 | 0.00 | 0.00 | 0.00 | 53 | 1020.7 |
| 20260906043714 | 68 | 171 | 0.0 | 0.0 | 0.00 | 0.00 | 0.00 | 54 | 1020.7 |
| 20260906043210 | 68 | 193 | 0.0 | 0.0 | 0.00 | 0.00 | 0.00 | 54 | 1020.5 |
| 20260906042709 | 68 | 193 | 0.0 | 0.0 | 0.00 | 0.00 | 0.00 | 54 | 1020.2 |
| 20260906042203 | 68 | 194 | 0.0 | 0.0 | 0.00 | 0.00 | 0.00 | 53 | 1020.1 |
| 20260906041658 | 69 | 194 | 0.0 | 0.0 | 0.00 | 0.00 | 0.00 | 52 | 1020.4 |
| 20260906041154 | 69 | 194 | 0.0 | 0.0 | 0.00 | 0.00 | 0.00 | 50 | 1020.1 |
| 20260906040649 | 70 | 197 | 0.0 | 0.0 | 0.00 | 0.00 | 0.00 | 50 | 1020.2 |
| 20260906040145 | 71 | 198 | 0.0 | 0.0 | 0.00 | 0.00 | 0.00 | 49 | 1020.5 |
| 20260906035644 | 71 | 195 | 0.0 | 0.0 | 0.00 | 0.00 | 0.00 | 48 | 1020.5 |
| 20260906035140 | 71 | 170 | 0.0 | 0.0 | 0.00 | 0.00 | 0.00 | 48 | 1020.5 |
| 20260906034635 | 71 | 153 | 0.0 | 0.0 | 0.00 | 0.00 | 0.00 | 47 | 1020.4 |
| 20260906034130 | 72 | 195 | 0.0 | 0.0 | 0.00 | 0.00 | 0.00 | 46 | 1020.4 |
| 20260906033625 | 73 | 196 | 0.0 | 0.0 | 0.00 | 0.00 | 0.00 | 46 | 1020.4 |
| 20260906033120 | 73 | 165 | 0.0 | 0.0 | 0.00 | 0.00 | 0.00 | 45 | 1020.6 |
| 20260906032617 | 73 | 197 | 0.0 | 0.0 | 0.00 | 0.00 | 0.00 | 45 | 1020.2 |
| 20260906032117 | 74 | 199 | 0.0 | 0.0 | 0.00 | 0.00 | 0.00 | 45 | 1020.4 |
| 20260906031612 | 74 | 179 | 0.0 | 0.0 | 0.00 | 0.00 | 0.00 | 44 | 1020.7 |
| 20260906031108 | 74 | 187 | 0.0 | 0.0 | 0.00 | 0.00 | 0.00 | 44 | 1020.2 |
| 20260906030607 | 75 | 187 | 0.0 | 0.0 | 0.00 | 0.00 | 0.00 | 43 | 1020.1 |
| 20260906025601 | 75 | 165 | 0.0 | 0.0 | 0.00 | 0.00 | 0.00 | 41 | 1020.0 |
| 20260906025100 | 76 | 165 | 0.0 | 0.0 | 0.00 | 0.00 | 0.00 | 41 | 1019.9 |
| 20260906024555 | 77 | 130 | 0.0 | 6.0 | 0.00 | 0.00 | 0.00 | 40 | 1019.8 |
| 20260906024049 | 77 | 298 | 1.0 | 2.0 | 0.00 | 0.00 | 0.00 | 38 | 1019.9 |
| 20260906023546 | 77 | 266 | 0.0 | 0.0 | 0.00 | 0.00 | 0.00 | 38 | 1019.7 |
| 20260906023040 | 77 | 266 | 0.0 | 0.0 | 0.00 | 0.00 | 0.00 | 38 | 1019.4 |
| 20260906022536 | 77 | 266 | 0.0 | 0.0 | 0.00 | 0.00 | 0.00 | 39 | 1019.5 |
| 20260906022031 | 77 | 266 | 0.0 | 0.0 | 0.00 | 0.00 | 0.00 | 37 | 1019.4 |
| 20260906021526 | 78 | 266 | 0.0 | 0.0 | 0.00 | 0.00 | 0.00 | 37 | 1019.4 |
| 20260906021020 | 78 | 267 | 0.0 | 0.0 | 0.00 | 0.00 | 0.00 | 37 | 1019.3 |
| 20260906020519 | 78 | 268 | 0.0 | 0.0 | 0.00 | 0.00 | 0.00 | 37 | 1019.4 |
| 20260906020019 | 79 | 269 | 0.0 | 0.0 | 0.00 | 0.00 | 0.00 | 36 | 1019.3 |
| 20260906015513 | 79 | 271 | 0.0 | 0.0 | 0.00 | 0.00 | 0.00 | 35 | 1019.1 |
| 20260906015012 | 80 | 276 | 0.0 | 1.0 | 0.00 | 0.00 | 0.00 | 34 | 1019.2 |
| 20260906014507 | 80 | 279 | 1.0 | 3.0 | 0.00 | 0.00 | 0.00 | 34 | 1019.2 |
| 20260906014003 | 79 | 210 | 1.0 | 2.0 | 0.00 | 0.00 | 0.00 | 34 | 1019.3 |
| 20260906013458 | 80 | 211 | 0.0 | 0.0 | 0.00 | 0.00 | 0.00 | 35 | 1019.0 |
| 20260906012948 | 80 | 211 | 0.0 | 1.0 | 0.00 | 0.00 | 0.00 | 34 | 1019.2 |
| 20260906012443 | 80 | 213 | 0.0 | 0.0 | 0.00 | 0.00 | 0.00 | 34 | 1019.3 |
| 20260906011942 | 81 | 216 | 0.0 | 0.0 | 0.00 | 0.00 | 0.00 | 34 | 1019.1 |
| 20260906011438 | 81 | 219 | 0.0 | 1.0 | 0.00 | 0.00 | 0.00 | 33 | 1019.3 |
| 20260906010933 | 81 | 268 | 0.0 | 2.0 | 0.00 | 0.00 | 0.00 | 33 | 1019.2 |
| 20260906010428 | 81 | 275 | 2.0 | 3.0 | 0.00 | 0.00 | 0.00 | 34 | 1019.4 |
| 20260906005925 | 81 | 313 | 0.0 | 0.0 | 0.00 | 0.00 | 0.00 | 34 | 1019.4 |
| 20260906005424 | 80 | 228 | 0.0 | 2.0 | 0.00 | 0.00 | 0.00 | 35 | 1019.4 |
| 20260906004922 | 81 | 229 | 1.0 | 2.0 | 0.00 | 0.00 | 0.00 | 35 | 1019.4 |
| 20260906004417 | 81 | 269 | 0.0 | 0.0 | 0.00 | 0.00 | 0.00 | 35 | 1019.3 |
| 20260906003913 | 81 | 269 | 0.0 | 4.0 | 0.00 | 0.00 | 0.00 | 35 | 1019.4 |
| 20260906003408 | 82 | 277 | 0.0 | 6.0 | 0.00 | 0.00 | 0.00 | 34 | 1019.7 |
| 20260906002903 | 82 | 282 | 2.0 | 8.0 | 0.00 | 0.00 | 0.00 | 34 | 1019.5 |
| 20260906002403 | 82 | 264 | 2.0 | 9.0 | 0.00 | 0.00 | 0.00 | 34 | 1019.3 |
| 20260906001858 | 83 | 255 | 0.0 | 7.0 | 0.00 | 0.00 | 0.00 | 33 | 1019.4 |
| 20260906001353 | 84 | 204 | 2.0 | 4.0 | 0.00 | 0.00 | 0.00 | 31 | 1019.3 |
| 20260906000848 | 84 | 223 | 0.0 | 6.0 | 0.00 | 0.00 | 0.00 | 32 | 1019.3 |
| 20260906000348 | 84 | 284 | 3.0 | 13.0 | 0.00 | 0.00 | 0.00 | 30 | 1019.5 |
| 20260905235843 | 84 | 105 | 0.0 | 7.0 | 0.00 | 0.00 | 0.00 | 30 | 1019.5 |
| 20260905235337 | 85 | 318 | 7.0 | 14.0 | 0.00 | 0.00 | 0.00 | 30 | 1019.5 |
| 20260905234833 | 86 | 309 | 6.0 | 10.0 | 0.00 | 0.00 | 0.00 | 29 | 1019.5 |
| 20260905234328 | 86 | 225 | 0.0 | 4.0 | 0.00 | 0.00 | 0.00 | 28 | 1019.3 |
| 20260905233823 | 87 | 250 | 1.0 | 3.0 | 0.00 | 0.00 | 0.00 | 28 | 1019.2 |
| 20260905233318 | 87 | 261 | 2.0 | 3.0 | 0.00 | 0.00 | 0.00 | 28 | 1019.1 |
| 20260905232817 | 88 | 176 | 2.0 | 2.0 | 0.00 | 0.00 | 0.00 | 28 | 1019.2 |
| 20260905232313 | 89 | 176 | 0.0 | 0.0 | 0.00 | 0.00 | 0.00 | 30 | 1019.1 |
| 20260905231809 | 90 | 176 | 0.0 | 0.0 | 0.00 | 0.00 | 0.00 | 26 | 1018.8 |
| 20260905231304 | 90 | 176 | 0.0 | 0.0 | 0.00 | 0.00 | 0.00 | 24 | 1018.8 |
| 20260905230800 | 90 | 131 | 0.0 | 2.0 | 0.00 | 0.00 | 0.00 | 25 | 1018.7 |
| 20260905230258 | 90 | 121 | 0.0 | 2.0 | 0.00 | 0.00 | 0.00 | 25 | 1018.6 |
| 20260905225758 | 90 | 147 | 0.0 | 0.0 | 0.00 | 0.00 | 0.00 | 25 | 1018.5 |
| 20260905225253 | 91 | 129 | 1.0 | 3.0 | 0.00 | 0.00 | 0.00 | 24 | 1018.4 |
| 20260905224752 | 91 | 125 | 0.0 | 0.0 | 0.00 | 0.00 | 0.00 | 25 | 1018.4 |
| 20260905224248 | 91 | 127 | 0.0 | 4.0 | 0.00 | 0.00 | 0.00 | 25 | 1018.5 |
| 20260905223743 | 91 | 168 | 0.0 | 6.0 | 0.00 | 0.00 | 0.00 | 25 | 1018.5 |
| 20260905223240 | 91 | 115 | 0.0 | 1.0 | 0.00 | 0.00 | 0.00 | 24 | 1018.5 |
| 20260905222736 | 92 | 106 | 2.0 | 6.0 | 0.00 | 0.00 | 0.00 | 23 | 1018.4 |
| 20260905222234 | 93 | 91 | 0.0 | 2.0 | 0.00 | 0.00 | 0.00 | 23 | 1018.6 |
| 20260905221731 | 94 | 134 | 2.0 | 6.0 | 0.00 | 0.00 | 0.00 | 22 | 1018.7 |
| 20260905221227 | 93 | 151 | 1.0 | 4.0 | 0.00 | 0.00 | 0.00 | 23 | 1018.4 |
| 20260905220723 | 95 | 165 | 1.0 | 6.0 | 0.00 | 0.00 | 0.00 | 22 | 1018.5 |
| 20260905220219 | 96 | 56 | 2.0 | 3.0 | 0.00 | 0.00 | 0.00 | 21 | 1018.4 |
| 20260905215718 | 94 | 113 | 0.0 | 3.0 | 0.00 | 0.00 | 0.00 | 23 | 1018.4 |
| 20260905215214 | 95 | 107 | 2.0 | 3.0 | 0.00 | 0.00 | 0.00 | 21 | 1018.6 |
| 20260905214710 | 93 | 128 | 2.0 | 3.0 | 0.00 | 0.00 | 0.00 | 23 | 1018.7 |
| 20260905214205 | 96 | 101 | 0.0 | 9.0 | 0.00 | 0.00 | 0.00 | 21 | 1018.6 |